FENGYUN 1C DEB, 29795

Orbit data source: Space-Track

FENGYUN 1C DEB, 29795 is space debris in SSO originally from a launch on Mon, 10 May 1999 UTC launched from the Taiyaun Space Center, China (TSC). Fengyun 1C debris stems from the Chinese weather satellite Fengyun-1C, which was intentionally destroyed by a Chinese anti-satellite missile in 2007. This event dramatically increased the amount of space debris, with thousands of trackable fragments posing hazards to satellites and human spaceflight. The Fengyun 1C debris cloud has become a focal point in discussions about space sustainability and the need for international regulations to prevent the creation of new debris.

Loading next visibility...
Identifier
29795, 1999-025CM
Orbit
SSO
Country
Flag of CNCN / PRC
Related business
Manufacturer
Unknown
Mission
Spacecraft
Bus & Motor
Unknown
Mass
Unknown
Launch date (UTC)
1999-05-10 (27 years ago)
Launch vehicle
Unknown
Launch site
Taiyaun Space Center, China (TSC)
Object type
Payload
Rocket body
Debris
Shape & HBR
Unknown shape, 0.1 m
Radar Cross Section
Small (<0.1 m²)

Expand to show TLE details & history
Last TLE update: 1 day ago

TLE from 1 day ago
0 FENGYUN 1C DEB
1 29795U 99025CM  26253.60657721  .00000023  00000-0  48464-4 0  9994
2 29795  98.9060  17.2136 0110861 250.9408 121.8650 13.93019560998502
Epoch: 2026-09-10T14:33Z
TLE epoch observation values (Epoch: 2026-09-10T14:33:28.270Z)
Latitude
13.67424°
Longitude
167.03035°
Altitude
963.551 km
Speed
7.349 km/s
True Right ascension
01h 00m 09s
True Declination
13° 35' 52"
Sunlit
Object was in full shadow at epoch
Visualization orbit readout
Latitude
Unknown
Longitude
Unknown
Altitude
Unknown
Speed
Unknown
Apparent Right ascension
Unknown
Apparent Declination
Unknown
Sunlit
N/A
Visualization observer readout
Local Sidereal Time
08:23:21
Azimuth
Unknown
Elevation
Unknown
Doppler factor
Unknown
Orbital elements
Apogee altitude
996.127 km
Perigee altitude
834.416 km
Semi-major axis
7,293.409 km
Eccentricity
0.01109
Inclination
98.906°
RAAN
17.2136°
Arg. of periapsis
250.9408°
True anomaly
122.93602°
Mean anomaly
121.865°
Eccentric anomaly
122.4013°
Mean motion
3.48456 °/min
Orbital period
103.31 mins
BSTAR
0.000048464
Loading maneuver chart data...
Computing Atmospheric mass density...
Loading historical data...
Loading historical data...
Loading historical data...
Loading historical data...
Loading historical data...
Loading historical data...
Loading historical data...

Documentation

Showing up to 5 results
|